Regional Weather Roundup
Issued by NWS Jackson, KY

Home | Current Version | Previous Version | Graphics & Text | Print | Product List | Glossary On
Versions: 1 2 3 4 5 6 7 8 9 10 11 12 13 14 15 16 17 18 19 20 21 22 23 24 25 26 27 28 29 30 31 32 33 34 35 36 37 38 39 40 41 42 43 44 45 46 47 48 49 50
000
ASUS43 KJKL 060710
RWRJKL

EAST KENTUCKY HOURLY WEATHER ROUNDUP
NATIONAL WEATHER SERVICE JACKSON KY
300 AM EDT WED MAY 06 2015

NOTE: "FAIR" INDICATES FEW OR NO CLOUDS BELOW 12,000 FEET WITH
NO SIGNIFICANT WEATHER AND/OR OBSTRUCTIONS TO VISIBILITY.

* THESE REPORTS ARE NOT UNDER NWS QUALITY CONTROL AND MAY NOT
  REPORT WEATHER SUCH AS PRECIPITATION AND FOG.

KYZ079-080-083-085-087-088-110-112-115-119-120-060800
...EASTERN KENTUCKY...

CITY           SKY/WX    TMP DP  RH WIND       PRES   REMARKS
JACKSON        CLEAR     63  52  67 SW3       30.23F
LONDON         MOCLDY    59  52  77 CALM      30.22F
SOMERSET*      CLEAR     55  54  94 CALM      30.24S
MONTICELLO*    CLEAR     56  56 100 CALM      30.25F
MIDDLESBORO*   CLOUDY    58  55  91 CALM      30.25F
HARLAN APT*    MOSUNNY   55  55 100 CALM      30.26F
HAZARD APT*    SUNNY     61  57  88 CALM      30.23F
BLACK MTN*       N/A     59  50  72 S6          N/A
PIKEVILLE APT* CLEAR     66  55  68 S3        30.23F
BIG SANDY*     SUNNY     62  55  78 CALM      30.23F
MOREHEAD APT*  SUNNY     61  54  77 S3        30.24F
$$

KYZ035-036-041-042-044-050-067-078-099-060800
...CENTRAL KENTUCKY...

CITY           SKY/WX    TMP DP  RH WIND       PRES   REMARKS
MT STERLING*   CLEAR     57  55  94 SW3       30.23F
FLEMING/MASON* CLEAR     63  55  77 S8        30.22F
DANVILLE*      CLEAR     59  54  82 CALM      30.23F
RICHMOND*      PTCLDY    59  54  82 CALM      30.22F
LEXINGTON      CLEAR     61  55  81 S5        30.22F
FRANKFORT      CLEAR     57  52  83 CALM      30.20F
$$

KYZ091>093-OHZ055-061-077-WVZ005-015-034-035-042-060800
...SOUTHERN OHIO/WEST VIRGINIA...

CITY           SKY/WX    TMP DP  RH WIND       PRES   REMARKS
COVINGTON      PTCLDY    65  53  65 CALM      30.20S
COLUMBUS       PTCLDY    61  56  83 CALM      30.19F
DAYTON         PTCLDY    65  54  67 CALM      30.20F
WILMINGTON     CLEAR     62  51  67 CALM      30.20F
HUNTINGTON     CLEAR     58  56  93 CALM      30.21F
CHARLESTON     CLEAR     59  56  89 CALM      30.21F
PINEVILLE*     CLEAR     56  56 100 MISG      30.31F FOG
BECKLEY        CLOUDY    61  50  67 CALM      30.28F
BLUEFIELD      CLEAR     63  49  60 W3        30.30F
$$

VAZ002-007-008-TNZ017-027-036-066-071-060800
...SOUTHWEST VIRGINIA/EAST TENNESSEE...

CITY           SKY/WX    TMP DP  RH WIND       PRES   REMARKS
WISE*          CLEAR     59  48  67 SW5       30.30F
JONESVILLE*    CLOUDY    57  55  94 CALM      30.27F
ABINGDON*      CLOUDY    62  56  80 CALM      30.28F
BRISTOL        CLOUDY    61  56  83 CALM      30.26F
KNOXVILLE      PTCLDY    63  57  81 NE3       30.22F
OAK RIDGE      PTCLDY    65  59  81 CALM      30.24F
CROSSVILLE     CLOUDY    67  53  61 CALM      30.26F
NASHVILLE      CLOUDY    64  58  80 S3        30.20F
$$

...KEY TO REMARKS...
VSB - VISIBILITY IN MILES
WCI - WIND CHILL INDEX
HX  - HEAT INDEX

$$



USA.gov is the U.S. government's official web portal to all federal, state and local government web resources and services.